| time (UTC) | temp F | wind direction | speed MPH | gust MPH | rain 1hr in | rain 24hr in | rain mn in | humidity % | barometer mb |
| 20260906044026 | 60 | 90 | 2.0 | 5.0 | 0.00 | 0.00 | 0.00 | 96 | 1012.0 |
| 20260906043520 | 60 | 63 | 3.0 | 4.0 | 0.00 | 0.00 | 0.00 | 97 | 1011.0 |
| 20260906043020 | 60 | 270 | 2.0 | 2.0 | 0.00 | 0.00 | 0.00 | 96 | 1011.0 |
| 20260906042520 | 59 | 168 | 1.0 | 1.0 | 0.00 | 0.00 | 0.00 | 96 | 1011.0 |
| 20260906042020 | 60 | 114 | 1.0 | 1.0 | 0.00 | 0.00 | 0.00 | 95 | 1011.0 |
| 20260906041520 | 60 | 141 | 0.0 | 1.0 | 0.00 | 0.00 | 0.00 | 95 | 1011.0 |
| 20260906041020 | 60 | 167 | 1.0 | 1.0 | 0.00 | 0.00 | 0.00 | 95 | 1011.0 |
| 20260906040520 | 60 | 167 | 1.0 | 1.0 | 0.00 | 0.00 | 0.00 | 95 | 1011.0 |
| 20260906040020 | 60 | 126 | 0.0 | 0.0 | 0.00 | 0.00 | 0.00 | 96 | 1011.0 |
| 20260906035520 | 60 | 138 | 0.0 | 1.0 | 0.00 | 0.00 | 0.00 | 96 | 1011.0 |
| 20260906035020 | 60 | 122 | 0.0 | 0.0 | 0.00 | 0.00 | 0.00 | 96 | 1011.0 |
| 20260906034521 | 59 | 238 | 1.0 | 1.0 | 0.00 | 0.00 | 0.00 | 97 | 1011.0 |
| 20260906034020 | 59 | 117 | 0.0 | 1.0 | 0.00 | 0.00 | 0.00 | 97 | 1011.0 |
| 20260906033520 | 59 | 135 | 1.0 | 1.0 | 0.00 | 0.00 | 0.00 | 98 | 1011.0 |
| 20260906033021 | 59 | 133 | 0.0 | 0.0 | 0.00 | 0.00 | 0.00 | 98 | 1011.0 |
| 20260906032520 | 59 | 152 | 1.0 | 1.0 | 0.00 | 0.00 | 0.00 | 98 | 1011.0 |
| 20260906032021 | 59 | 180 | 1.0 | 1.0 | 0.00 | 0.00 | 0.00 | 98 | 1011.0 |
| 20260906031520 | 59 | 137 | 0.0 | 1.0 | 0.00 | 0.00 | 0.00 | 98 | 1011.0 |
| 20260906031020 | 60 | 145 | 1.0 | 1.0 | 0.00 | 0.00 | 0.00 | 98 | 1010.0 |
| 20260906030522 | 60 | 134 | 0.0 | 0.0 | 0.00 | 0.00 | 0.00 | 98 | 1010.0 |
| 20260906030020 | 60 | 129 | 0.0 | 0.0 | 0.00 | 0.00 | 0.00 | 98 | 1010.0 |
| 20260906025520 | 59 | 131 | 0.0 | 0.0 | 0.00 | 0.00 | 0.00 | 99 | 1010.0 |
| 20260906025020 | 59 | 128 | 0.0 | 0.0 | 0.00 | 0.00 | 0.00 | 98 | 1010.0 |
| 20260906024520 | 59 | 111 | 0.0 | 0.0 | 0.00 | 0.00 | 0.00 | 98 | 1010.0 |
| 20260906024020 | 60 | 158 | 1.0 | 2.0 | 0.00 | 0.00 | 0.00 | 98 | 1010.0 |
| 20260906023521 | 60 | 140 | 0.0 | 0.0 | 0.00 | 0.00 | 0.00 | 98 | 1010.0 |
| 20260906023020 | 60 | 153 | 1.0 | 1.0 | 0.00 | 0.00 | 0.00 | 98 | 1010.0 |
| 20260906022521 | 60 | 135 | 0.0 | 0.0 | 0.00 | 0.00 | 0.00 | 97 | 1010.0 |
| 20260906022020 | 60 | 150 | 0.0 | 0.0 | 0.00 | 0.00 | 0.00 | 97 | 1010.0 |
| 20260906021520 | 60 | 122 | 0.0 | 0.0 | 0.00 | 0.00 | 0.00 | 97 | 1010.0 |
| 20260906021020 | 60 | 115 | 0.0 | 0.0 | 0.00 | 0.00 | 0.00 | 96 | 1010.0 |
| 20260906020522 | 60 | 119 | 0.0 | 1.0 | 0.00 | 0.00 | 0.00 | 96 | 1010.0 |
| 20260906020020 | 60 | 120 | 0.0 | 0.0 | 0.00 | 0.00 | 0.00 | 96 | 1010.0 |
| 20260906015520 | 60 | 116 | 0.0 | 0.0 | 0.00 | 0.00 | 0.00 | 95 | 1010.0 |
| 20260906015020 | 61 | 122 | 0.0 | 0.0 | 0.00 | 0.00 | 0.00 | 95 | 1010.0 |
| 20260906014520 | 61 | 118 | 0.0 | 0.0 | 0.00 | 0.00 | 0.00 | 95 | 1010.0 |
| 20260906014020 | 61 | 128 | 0.0 | 0.0 | 0.00 | 0.00 | 0.00 | 95 | 1010.0 |
| 20260906013521 | 61 | 154 | 1.0 | 1.0 | 0.00 | 0.00 | 0.00 | 95 | 1010.0 |
| 20260906013020 | 61 | 163 | 1.0 | 1.0 | 0.00 | 0.00 | 0.00 | 95 | 1010.0 |
| 20260906012520 | 61 | 145 | 0.0 | 0.0 | 0.00 | 0.00 | 0.00 | 95 | 1010.0 |
| 20260906012020 | 61 | 139 | 0.0 | 0.0 | 0.00 | 0.00 | 0.00 | 95 | 1010.0 |
| 20260906011520 | 61 | 113 | 0.0 | 0.0 | 0.00 | 0.00 | 0.00 | 95 | 1010.0 |
| 20260906011020 | 61 | 149 | 0.0 | 0.0 | 0.00 | 0.00 | 0.00 | 95 | 1010.0 |
| 20260906010520 | 61 | 113 | 0.0 | 0.0 | 0.00 | 0.00 | 0.00 | 95 | 1010.0 |
| 20260906010020 | 61 | 119 | 0.0 | 0.0 | 0.00 | 0.00 | 0.00 | 95 | 1010.0 |
| 20260906005520 | 61 | 135 | 0.0 | 0.0 | 0.00 | 0.00 | 0.00 | 95 | 1010.0 |
| 20260906005020 | 61 | 113 | 0.0 | 0.0 | 0.00 | 0.00 | 0.00 | 94 | 1010.0 |
| 20260906004520 | 61 | 124 | 0.0 | 0.0 | 0.00 | 0.00 | 0.00 | 94 | 1010.0 |
| 20260906004021 | 62 | 174 | 1.0 | 3.0 | 0.00 | 0.00 | 0.00 | 94 | 1010.0 |
| 20260906003520 | 62 | 129 | 1.0 | 1.0 | 0.00 | 0.00 | 0.00 | 93 | 1011.0 |
| 20260906003021 | 62 | 135 | 0.0 | 0.0 | 0.00 | 0.00 | 0.00 | 93 | 1011.0 |
| 20260906002520 | 62 | 142 | 1.0 | 1.0 | 0.00 | 0.00 | 0.00 | 93 | 1011.0 |
| 20260906002020 | 62 | 132 | 1.0 | 1.0 | 0.00 | 0.00 | 0.00 | 93 | 1011.0 |
| 20260906001521 | 62 | 270 | 2.0 | 2.0 | 0.00 | 0.00 | 0.00 | 94 | 1011.0 |
| 20260906001020 | 62 | 210 | 2.0 | 2.0 | 0.00 | 0.00 | 0.00 | 95 | 1011.0 |
| 20260906000520 | 62 | 128 | 3.0 | 4.0 | 0.00 | 0.00 | 0.00 | 96 | 1011.0 |
| 20260906000020 | 62 | 94 | 0.0 | 0.0 | 0.00 | 0.00 | 0.00 | 97 | 1011.0 |
| 20260905235520 | 62 | 177 | 1.0 | 2.0 | 0.00 | 0.00 | 0.00 | 97 | 1011.0 |
| 20260905235020 | 62 | 137 | 0.0 | 0.0 | 0.00 | 0.00 | 0.00 | 97 | 1011.0 |
| 20260905234520 | 62 | 144 | 1.0 | 2.0 | 0.00 | 0.00 | 0.00 | 96 | 1011.0 |
| 20260905234020 | 63 | 163 | 1.0 | 1.0 | 0.00 | 0.00 | 0.00 | 96 | 1011.0 |
| 20260905233521 | 63 | 129 | 0.0 | 0.0 | 0.00 | 0.00 | 0.00 | 95 | 1011.0 |
| 20260905233020 | 63 | 138 | 1.0 | 1.0 | 0.00 | 0.00 | 0.00 | 95 | 1011.0 |
| 20260905232520 | 63 | 157 | 1.0 | 3.0 | 0.00 | 0.00 | 0.00 | 94 | 1011.0 |
| 20260905232020 | 63 | 100 | 0.0 | 0.0 | 0.00 | 0.00 | 0.00 | 94 | 1011.0 |
| 20260905231521 | 63 | 149 | 1.0 | 1.0 | 0.00 | 0.00 | 0.00 | 94 | 1011.0 |
| 20260905231020 | 64 | 155 | 1.0 | 2.0 | 0.00 | 0.00 | 0.00 | 94 | 1011.0 |
| 20260905230520 | 64 | 177 | 1.0 | 2.0 | 0.00 | 0.00 | 0.00 | 93 | 1011.0 |
| 20260905230020 | 64 | 123 | 0.0 | 0.0 | 0.00 | 0.00 | 0.00 | 93 | 1011.0 |
| 20260905225520 | 64 | 117 | 0.0 | 0.0 | 0.00 | 0.00 | 0.00 | 93 | 1011.0 |
| 20260905225020 | 64 | 175 | 2.0 | 2.0 | 0.00 | 0.00 | 0.00 | 93 | 1011.0 |
| 20260905224521 | 64 | 154 | 1.0 | 1.0 | 0.00 | 0.00 | 0.00 | 93 | 1011.0 |
| 20260905224021 | 64 | 153 | 1.0 | 1.0 | 0.00 | 0.00 | 0.00 | 94 | 1011.0 |
| 20260905223520 | 63 | 212 | 2.0 | 2.0 | 0.00 | 0.00 | 0.00 | 94 | 1011.0 |
| 20260905223020 | 63 | 177 | 2.0 | 2.0 | 0.00 | 0.00 | 0.00 | 94 | 1011.0 |
| 20260905222520 | 63 | 159 | 2.0 | 2.0 | 0.00 | 0.00 | 0.00 | 95 | 1011.0 |
| 20260905222020 | 63 | 203 | 2.0 | 2.0 | 0.00 | 0.00 | 0.00 | 95 | 1011.0 |
| 20260905221520 | 63 | 176 | 1.0 | 1.0 | 0.00 | 0.00 | 0.00 | 95 | 1011.0 |
| 20260905221021 | 63 | 155 | 2.0 | 3.0 | 0.00 | 0.00 | 0.00 | 96 | 1011.0 |
| 20260905220520 | 63 | 180 | 2.0 | 2.0 | 0.00 | 0.00 | 0.00 | 96 | 1011.0 |
| 20260905220021 | 63 | 136 | 1.0 | 2.0 | 0.00 | 0.00 | 0.00 | 96 | 1011.0 |
| 20260905215521 | 63 | 132 | 1.0 | 1.0 | 0.00 | 0.00 | 0.00 | 96 | 1011.0 |
| 20260905215021 | 63 | 157 | 2.0 | 2.0 | 0.00 | 0.00 | 0.00 | 95 | 1010.0 |
| 20260905214520 | 63 | 166 | 2.0 | 2.0 | 0.00 | 0.00 | 0.00 | 95 | 1010.0 |
| 20260905214030 | 63 | 172 | 4.0 | 5.0 | 0.00 | 0.00 | 0.00 | 95 | 1010.0 |
| 20260905213520 | 63 | 110 | 0.0 | 0.0 | 0.00 | 0.00 | 0.00 | 96 | 1010.0 |
| 20260905213020 | 63 | 116 | 0.0 | 0.0 | 0.00 | 0.00 | 0.00 | 96 | 1010.0 |
| 20260905212520 | 63 | 105 | 1.0 | 2.0 | 0.00 | 0.00 | 0.00 | 96 | 1010.0 |
| 20260905212020 | 63 | 155 | 2.0 | 3.0 | 0.00 | 0.00 | 0.00 | 96 | 1010.0 |
| 20260905211520 | 63 | 155 | 4.0 | 5.0 | 0.00 | 0.00 | 0.00 | 97 | 1010.0 |
| 20260905211021 | 63 | 98 | 1.0 | 1.0 | 0.00 | 0.00 | 0.00 | 97 | 1010.0 |
| 20260905210521 | 63 | 267 | 2.0 | 2.0 | 0.00 | 0.00 | 0.00 | 96 | 1010.0 |
| 20260905210021 | 63 | 308 | 2.0 | 3.0 | 0.00 | 0.00 | 0.09 | 96 | 1010.0 |
| 20260905205520 | 63 | 209 | 1.0 | 2.0 | 0.00 | 0.00 | 0.09 | 96 | 1010.0 |
| 20260905205020 | 63 | 324 | 2.0 | 2.0 | 0.00 | 0.00 | 0.09 | 97 | 1010.0 |
| 20260905204520 | 63 | 135 | 2.0 | 2.0 | 0.00 | 0.00 | 0.09 | 97 | 1010.0 |
| 20260905204020 | 63 | 270 | 4.0 | 5.0 | 0.00 | 0.00 | 0.09 | 97 | 1010.0 |
| 20260905203521 | 63 | 355 | 3.0 | 5.0 | 0.00 | 0.00 | 0.09 | 97 | 1009.0 |
| 20260905203051 | 63 | 176 | 1.0 | 1.0 | 0.00 | 0.00 | 0.09 | 97 | 1009.0 |
| 20260905202520 | 63 | 134 | 1.0 | 1.0 | 0.00 | 0.00 | 0.09 | 97 | 1009.0 |
| 20260905202020 | 64 | 94 | 1.0 | 1.0 | 0.00 | 0.00 | 0.09 | 96 | 1009.0 |
| 20260905201520 | 64 | 126 | 0.0 | 0.0 | 0.00 | 0.00 | 0.09 | 96 | 1009.0 |
| 20260905201020 | 64 | 93 | 4.0 | 5.0 | 0.00 | 0.00 | 0.09 | 95 | 1009.0 |
| 20260905200521 | 64 | 181 | 2.0 | 2.0 | 0.00 | 0.00 | 0.09 | 95 | 1009.0 |
| 20260905200020 | 64 | 147 | 2.0 | 2.0 | 0.00 | 0.00 | 0.09 | 96 | 1009.0 |
| 20260905195520 | 64 | 113 | 0.0 | 0.0 | 0.00 | 0.00 | 0.09 | 95 | 1009.0 |
| 20260905195020 | 64 | 214 | 0.0 | 1.0 | 0.00 | 0.00 | 0.09 | 95 | 1009.0 |
| 20260905194525 | 64 | 143 | 1.0 | 1.0 | 0.00 | 0.00 | 0.09 | 95 | 1009.0 |
| 20260905194020 | 64 | 264 | 3.0 | 4.0 | 0.05 | 0.00 | 0.09 | 95 | 1009.0 |
| 20260905193522 | 64 | 249 | 3.0 | 3.0 | 0.05 | 0.00 | 0.09 | 95 | 1009.0 |
| 20260905193020 | 64 | 99 | 1.0 | 2.0 | 0.00 | 0.00 | 0.07 | 95 | 1009.0 |
| 20260905192521 | 64 | 235 | 2.0 | 2.0 | 0.00 | 0.00 | 0.07 | 95 | 1009.0 |
| 20260905192020 | 64 | 268 | 4.0 | 4.0 | 0.00 | 0.00 | 0.07 | 95 | 1009.0 |
| 20260905191524 | 64 | 274 | 3.0 | 3.0 | 0.00 | 0.00 | 0.07 | 95 | 1009.0 |
| 20260905191020 | 64 | 112 | 0.0 | 0.0 | 0.00 | 0.00 | 0.07 | 95 | 1009.0 |
| 20260905190520 | 64 | 118 | 0.0 | 0.0 | 0.00 | 0.00 | 0.07 | 95 | 1009.0 |
| 20260905190021 | 64 | 113 | 0.0 | 0.0 | 0.00 | 0.00 | 0.07 | 95 | 1009.0 |
| 20260905185521 | 64 | 141 | 1.0 | 1.0 | 0.00 | 0.00 | 0.07 | 96 | 1009.0 |
| 20260905185020 | 64 | 224 | 3.0 | 4.0 | 0.00 | 0.00 | 0.07 | 96 | 1009.0 |
| 20260905184520 | 65 | 164 | 2.0 | 4.0 | 0.00 | 0.00 | 0.07 | 96 | 1009.0 |
| 20260905184020 | 65 | 120 | 2.0 | 2.0 | 0.00 | 0.00 | 0.07 | 95 | 1009.0 |
| 20260905183522 | 65 | 243 | 2.0 | 3.0 | 0.00 | 0.00 | 0.07 | 94 | 1009.0 |
| 20260905183021 | 65 | 96 | 0.0 | 0.0 | 0.00 | 0.00 | 0.07 | 94 | 1009.0 |
| 20260905182522 | 66 | 238 | 3.0 | 5.0 | 0.00 | 0.00 | 0.07 | 93 | 1009.0 |
| 20260905182021 | 66 | 322 | 3.0 | 3.0 | 0.00 | 0.00 | 0.07 | 92 | 1009.0 |
| 20260905181520 | 66 | 142 | 2.0 | 2.0 | 0.00 | 0.00 | 0.07 | 91 | 1009.0 |
| 20260905181021 | 66 | 54 | 4.0 | 4.0 | 0.00 | 0.00 | 0.07 | 90 | 1009.0 |
| 20260905180520 | 66 | 278 | 2.0 | 3.0 | 0.00 | 0.00 | 0.07 | 90 | 1009.0 |
| 20260905180020 | 66 | 296 | 2.0 | 2.0 | 0.00 | 0.00 | 0.07 | 90 | 1009.0 |
| 20260905175520 | 66 | 26 | 2.0 | 3.0 | 0.00 | 0.00 | 0.07 | 91 | 1009.0 |
| 20260905175020 | 66 | 74 | 3.0 | 7.0 | 0.00 | 0.00 | 0.07 | 90 | 1009.0 |
| 20260905174522 | 67 | 25 | 2.0 | 3.0 | 0.00 | 0.00 | 0.07 | 91 | 1009.0 |
| 20260905174021 | 67 | 204 | 2.0 | 3.0 | 0.00 | 0.00 | 0.07 | 90 | 1009.0 |
| 20260905173521 | 67 | 66 | 1.0 | 1.0 | 0.05 | 0.00 | 0.07 | 90 | 1009.0 |
| 20260905173020 | 67 | 347 | 7.0 | 7.0 | 0.31 | 0.00 | 0.07 | 86 | 1009.0 |
| 20260905172521 | 68 | 100 | 2.0 | 2.0 | 0.47 | 0.00 | 0.07 | 84 | 1009.0 |
| 20260905172020 | 69 | 90 | 1.0 | 1.0 | 0.20 | 0.00 | 0.02 | 74 | 1009.0 |
| 20260905171520 | 71 | 78 | 2.0 | 3.0 | 0.00 | 0.00 | 0.00 | 68 | 1009.0 |
| 20260905171020 | 71 | 147 | 2.0 | 3.0 | 0.00 | 0.00 | 0.00 | 65 | 1009.0 |
| 20260905170520 | 72 | 35 | 6.0 | 7.0 | 0.00 | 0.00 | 0.00 | 61 | 1009.0 |
| 20260905170020 | 73 | 320 | 7.0 | 7.0 | 0.00 | 0.00 | 0.00 | 55 | 1009.0 |
| 20260905165520 | 73 | 296 | 4.0 | 6.0 | 0.00 | 0.00 | 0.00 | 54 | 1009.0 |
| 20260905165020 | 73 | 315 | 5.0 | 8.0 | 0.00 | 0.00 | 0.00 | 53 | 1009.0 |
| 20260905164520 | 74 | 302 | 4.0 | 7.0 | 0.00 | 0.00 | 0.00 | 52 | 1008.0 |
| 20260905164020 | 74 | 229 | 6.0 | 7.0 | 0.00 | 0.00 | 0.00 | 51 | 1008.0 |
| 20260905163520 | 74 | 59 | 1.0 | 3.0 | 0.00 | 0.00 | 0.00 | 51 | 1008.0 |
| 20260905163022 | 74 | 315 | 4.0 | 6.0 | 0.00 | 0.00 | 0.00 | 51 | 1008.0 |
| 20260905162520 | 74 | 109 | 0.0 | 0.0 | 0.00 | 0.00 | 0.00 | 51 | 1008.0 |
| 20260905162020 | 74 | 82 | 2.0 | 2.0 | 0.00 | 0.00 | 0.00 | 51 | 1008.0 |
| 20260905161520 | 74 | 111 | 2.0 | 2.0 | 0.00 | 0.00 | 0.00 | 50 | 1008.0 |
| 20260905161021 | 74 | 15 | 3.0 | 3.0 | 0.00 | 0.00 | 0.00 | 50 | 1008.0 |
| 20260905160521 | 74 | 300 | 2.0 | 9.0 | 0.00 | 0.00 | 0.00 | 50 | 1008.0 |
| 20260905160021 | 74 | 283 | 11.0 | 14.0 | 0.00 | 0.00 | 0.00 | 49 | 1008.0 |
| 20260905155520 | 75 | 298 | 6.0 | 6.0 | 0.00 | 0.00 | 0.00 | 48 | 1008.0 |
| 20260905155022 | 75 | 316 | 14.0 | 22.0 | 0.00 | 0.00 | 0.00 | 48 | 1008.0 |
| 20260905154521 | 76 | 342 | 11.0 | 14.0 | 0.00 | 0.00 | 0.00 | 47 | 1008.0 |
| 20260905154020 | 76 | 340 | 10.0 | 12.0 | 0.00 | 0.00 | 0.00 | 47 | 1008.0 |
| 20260905153520 | 76 | 344 | 7.0 | 8.0 | 0.00 | 0.00 | 0.00 | 48 | 1008.0 |
| 20260905153020 | 76 | 318 | 5.0 | 6.0 | 0.00 | 0.00 | 0.00 | 48 | 1008.0 |
| 20260905152520 | 76 | 116 | 3.0 | 6.0 | 0.00 | 0.00 | 0.00 | 47 | 1007.0 |
| 20260905152020 | 76 | 301 | 3.0 | 3.0 | 0.00 | 0.00 | 0.00 | 47 | 1007.0 |
| 20260905151521 | 77 | 259 | 5.0 | 9.0 | 0.00 | 0.00 | 0.00 | 48 | 1007.0 |
| 20260905151021 | 77 | 49 | 1.0 | 2.0 | 0.00 | 0.00 | 0.00 | 49 | 1006.0 |
| 20260905150521 | 77 | 319 | 8.0 | 8.0 | 0.00 | 0.00 | 0.00 | 49 | 1006.0 |
| 20260905150020 | 77 | 323 | 7.0 | 8.0 | 0.00 | 0.00 | 0.00 | 49 | 1006.0 |
| 20260905145520 | 78 | 317 | 15.0 | 26.0 | 0.00 | 0.00 | 0.00 | 49 | 1006.0 |
| 20260905145020 | 79 | 303 | 6.0 | 8.0 | 0.00 | 0.00 | 0.00 | 50 | 1006.0 |
| 20260905144520 | 79 | 270 | 11.0 | 16.0 | 0.00 | 0.00 | 0.00 | 50 | 1006.0 |
| 20260905144020 | 80 | 113 | 4.0 | 7.0 | 0.00 | 0.00 | 0.00 | 48 | 1006.0 |
| 20260905143520 | 80 | 13 | 10.0 | 24.0 | 0.00 | 0.00 | 0.00 | 47 | 1005.0 |
| 20260905143021 | 80 | 319 | 15.0 | 32.0 | 0.00 | 0.00 | 0.00 | 46 | 1005.0 |
| 20260905142520 | 81 | 62 | 6.0 | 7.0 | 0.00 | 0.00 | 0.00 | 44 | 1005.0 |
| 20260905142021 | 83 | 257 | 11.0 | 26.0 | 0.00 | 0.00 | 0.00 | 43 | 1005.0 |
| 20260905141520 | 85 | 320 | 7.0 | 12.0 | 0.00 | 0.00 | 0.00 | 42 | 1005.0 |
| 20260905141020 | 87 | 199 | 5.0 | 9.0 | 0.00 | 0.00 | 0.00 | 41 | 1005.0 |
| 20260905140520 | 88 | 318 | 15.0 | 19.0 | 0.00 | 0.00 | 0.00 | 40 | 1005.0 |
| 20260905140021 | 89 | 68 | 13.0 | 26.0 | 0.00 | 0.00 | 0.00 | 38 | 1004.0 |
| 20260905135520 | 93 | 328 | 7.0 | 8.0 | 0.00 | 0.00 | 0.00 | 31 | 1004.0 |
| 20260905135020 | 94 | 232 | 4.0 | 6.0 | 0.00 | 0.00 | 0.00 | 30 | 1004.0 |
| 20260905134521 | 95 | 291 | 4.0 | 5.0 | 0.00 | 0.00 | 0.00 | 29 | 1004.0 |
| 20260905134020 | 96 | 189 | 5.0 | 5.0 | 0.00 | 0.00 | 0.00 | 29 | 1004.0 |
| 20260905133521 | 95 | 184 | 6.0 | 6.0 | 0.00 | 0.00 | 0.00 | 29 | 1004.0 |
| 20260905133022 | 96 | 183 | 4.0 | 5.0 | 0.00 | 0.00 | 0.00 | 28 | 1004.0 |
| 20260905132521 | 98 | 167 | 3.0 | 3.0 | 0.00 | 0.00 | 0.00 | 27 | 1004.0 |
| 20260905132020 | 97 | 18 | 4.0 | 4.0 | 0.00 | 0.00 | 0.00 | 27 | 1004.0 |
| 20260905131521 | 94 | 242 | 8.0 | 8.0 | 0.00 | 0.00 | 0.00 | 30 | 1004.0 |
| 20260905131020 | 94 | 108 | 1.0 | 2.0 | 0.00 | 0.00 | 0.00 | 30 | 1004.0 |
| 20260905130520 | 94 | 197 | 3.0 | 3.0 | 0.00 | 0.00 | 0.00 | 30 | 1004.0 |
| 20260905130023 | 93 | 182 | 3.0 | 3.0 | 0.00 | 0.00 | 0.00 | 30 | 1004.0 |
| 20260905125520 | 94 | 45 | 2.0 | 2.0 | 0.00 | 0.00 | 0.00 | 29 | 1004.0 |
| 20260905125020 | 94 | 152 | 3.0 | 3.0 | 0.00 | 0.00 | 0.00 | 30 | 1004.0 |
| 20260905124521 | 94 | 257 | 7.0 | 10.0 | 0.00 | 0.00 | 0.00 | 29 | 1004.0 |
| 20260905124020 | 95 | 262 | 9.0 | 13.0 | 0.00 | 0.00 | 0.00 | 28 | 1004.0 |
| 20260905123521 | 96 | 242 | 3.0 | 5.0 | 0.00 | 0.00 | 0.00 | 28 | 1004.0 |
| 20260905123020 | 98 | 239 | 8.0 | 9.0 | 0.00 | 0.00 | 0.00 | 26 | 1004.0 |
| 20260905122520 | 100 | 73 | 1.0 | 3.0 | 0.00 | 0.00 | 0.00 | 26 | 1005.0 |
| 20260905122020 | 95 | 266 | 7.0 | 11.0 | 0.00 | 0.00 | 0.00 | 28 | 1005.0 |
| 20260905121521 | 94 | 123 | 2.0 | 4.0 | 0.00 | 0.00 | 0.00 | 29 | 1005.0 |
| 20260905121020 | 96 | 245 | 4.0 | 9.0 | 0.00 | 0.00 | 0.00 | 28 | 1004.0 |
| 20260905120521 | 96 | 241 | 7.0 | 8.0 | 0.00 | 0.00 | 0.00 | 29 | 1004.0 |
| 20260905120021 | 96 | 221 | 4.0 | 8.0 | 0.00 | 0.00 | 0.00 | 28 | 1005.0 |
| 20260905115520 | 96 | 211 | 8.0 | 8.0 | 0.00 | 0.00 | 0.00 | 28 | 1005.0 |
| 20260905115020 | 96 | 121 | 2.0 | 4.0 | 0.00 | 0.00 | 0.00 | 28 | 1005.0 |
| 20260905114521 | 96 | 110 | 3.0 | 6.0 | 0.00 | 0.00 | 0.00 | 28 | 1005.0 |
| 20260905114020 | 94 | 216 | 6.0 | 8.0 | 0.00 | 0.00 | 0.00 | 29 | 1005.0 |
| 20260905113520 | 95 | 185 | 4.0 | 5.0 | 0.00 | 0.00 | 0.00 | 29 | 1005.0 |
| 20260905113020 | 95 | 151 | 5.0 | 5.0 | 0.00 | 0.00 | 0.00 | 29 | 1005.0 |
| 20260905112521 | 94 | 71 | 1.0 | 3.0 | 0.00 | 0.00 | 0.00 | 30 | 1005.0 |
| 20260905112020 | 94 | 184 | 4.0 | 9.0 | 0.00 | 0.00 | 0.00 | 30 | 1005.0 |
| 20260905111520 | 94 | 195 | 6.0 | 12.0 | 0.00 | 0.00 | 0.00 | 30 | 1005.0 |
| 20260905111020 | 94 | 187 | 6.0 | 11.0 | 0.00 | 0.00 | 0.00 | 30 | 1005.0 |
| 20260905110520 | 93 | 90 | 9.0 | 9.0 | 0.00 | 0.00 | 0.00 | 31 | 1005.0 |
| 20260905110021 | 93 | 231 | 3.0 | 4.0 | 0.00 | 0.00 | 0.00 | 31 | 1005.0 |
| 20260905105520 | 93 | 226 | 3.0 | 3.0 | 0.00 | 0.00 | 0.00 | 31 | 1005.0 |
| 20260905105020 | 92 | 209 | 12.0 | 14.0 | 0.00 | 0.00 | 0.00 | 32 | 1005.0 |
| 20260905104521 | 92 | 187 | 5.0 | 6.0 | 0.00 | 0.00 | 0.00 | 31 | 1005.0 |
| 20260905104021 | 92 | 205 | 6.0 | 10.0 | 0.00 | 0.00 | 0.00 | 33 | 1005.0 |
| 20260905103521 | 92 | 203 | 6.0 | 7.0 | 0.00 | 0.00 | 0.00 | 31 | 1005.0 |
| 20260905103021 | 90 | 226 | 3.0 | 5.0 | 0.00 | 0.00 | 0.00 | 34 | 1005.0 |
| 20260905102520 | 91 | 247 | 3.0 | 4.0 | 0.00 | 0.00 | 0.00 | 33 | 1005.0 |
| 20260905102020 | 91 | 216 | 2.0 | 3.0 | 0.00 | 0.00 | 0.00 | 33 | 1005.0 |
| 20260905101521 | 91 | 148 | 3.0 | 3.0 | 0.00 | 0.00 | 0.00 | 33 | 1005.0 |
| 20260905101020 | 90 | 122 | 4.0 | 5.0 | 0.00 | 0.00 | 0.00 | 34 | 1006.0 |
| 20260905100520 | 91 | 216 | 4.0 | 7.0 | 0.00 | 0.00 | 0.00 | 34 | 1006.0 |
| 20260905100020 | 90 | 212 | 3.0 | 4.0 | 0.00 | 0.00 | 0.00 | 34 | 1005.0 |
| 20260905095520 | 89 | 148 | 7.0 | 8.0 | 0.00 | 0.00 | 0.00 | 34 | 1005.0 |
| 20260905095020 | 90 | 143 | 4.0 | 5.0 | 0.00 | 0.00 | 0.00 | 34 | 1005.0 |
| 20260905094522 | 91 | 193 | 6.0 | 6.0 | 0.00 | 0.00 | 0.00 | 34 | 1005.0 |
| 20260905094020 | 90 | 209 | 7.0 | 9.0 | 0.00 | 0.00 | 0.00 | 34 | 1005.0 |
| 20260905093521 | 91 | 199 | 4.0 | 5.0 | 0.00 | 0.00 | 0.00 | 33 | 1006.0 |
| 20260905093020 | 91 | 183 | 5.0 | 5.0 | 0.00 | 0.00 | 0.00 | 32 | 1006.0 |
| 20260905092520 | 92 | 210 | 9.0 | 10.0 | 0.00 | 0.00 | 0.00 | 33 | 1006.0 |
| 20260905092020 | 91 | 243 | 10.0 | 15.0 | 0.00 | 0.00 | 0.00 | 34 | 1006.0 |
| 20260905091520 | 91 | 133 | 5.0 | 8.0 | 0.00 | 0.00 | 0.00 | 34 | 1006.0 |
| 20260905091021 | 90 | 169 | 5.0 | 8.0 | 0.00 | 0.00 | 0.00 | 35 | 1006.0 |
| 20260905090521 | 89 | 168 | 6.0 | 7.0 | 0.00 | 0.00 | 0.00 | 36 | 1006.0 |
| 20260905090020 | 91 | 125 | 1.0 | 2.0 | 0.00 | 0.00 | 0.00 | 35 | 1006.0 |
| 20260905085520 | 91 | 203 | 8.0 | 11.0 | 0.00 | 0.00 | 0.00 | 34 | 1006.0 |
| 20260905085020 | 89 | 193 | 5.0 | 6.0 | 0.00 | 0.00 | 0.00 | 35 | 1006.0 |
| 20260905084520 | 89 | 172 | 6.0 | 8.0 | 0.00 | 0.00 | 0.00 | 35 | 1006.0 |
| 20260905084020 | 90 | 174 | 6.0 | 8.0 | 0.00 | 0.00 | 0.00 | 35 | 1006.0 |
| 20260905083521 | 89 | 201 | 8.0 | 12.0 | 0.00 | 0.00 | 0.00 | 37 | 1006.0 |
| 20260905083020 | 90 | 216 | 3.0 | 4.0 | 0.00 | 0.00 | 0.00 | 35 | 1006.0 |
| 20260905082520 | 90 | 139 | 3.0 | 5.0 | 0.00 | 0.00 | 0.00 | 35 | 1006.0 |
| 20260905082020 | 88 | 235 | 4.0 | 5.0 | 0.00 | 0.00 | 0.00 | 37 | 1006.0 |
| 20260905081520 | 90 | 181 | 2.0 | 2.0 | 0.00 | 0.00 | 0.00 | 35 | 1006.0 |
| 20260905081020 | 88 | 214 | 3.0 | 6.0 | 0.00 | 0.00 | 0.00 | 38 | 1006.0 |
| 20260905080521 | 88 | 241 | 5.0 | 6.0 | 0.00 | 0.00 | 0.00 | 38 | 1006.0 |
| 20260905080020 | 88 | 193 | 3.0 | 3.0 | 0.00 | 0.00 | 0.00 | 37 | 1006.0 |
| 20260905075520 | 86 | 160 | 5.0 | 7.0 | 0.00 | 0.00 | 0.00 | 39 | 1006.0 |
| 20260905075020 | 86 | 174 | 5.0 | 5.0 | 0.00 | 0.00 | 0.00 | 39 | 1006.0 |
| 20260905074521 | 87 | 228 | 4.0 | 7.0 | 0.00 | 0.00 | 0.00 | 38 | 1006.0 |
| 20260905074020 | 86 | 219 | 8.0 | 8.0 | 0.00 | 0.00 | 0.00 | 38 | 1006.0 |
| 20260905073520 | 86 | 279 | 4.0 | 5.0 | 0.00 | 0.00 | 0.00 | 39 | 1007.0 |
| 20260905073021 | 86 | 203 | 3.0 | 6.0 | 0.00 | 0.00 | 0.00 | 38 | 1007.0 |
| 20260905072520 | 86 | 155 | 5.0 | 6.0 | 0.00 | 0.00 | 0.00 | 40 | 1007.0 |
| 20260905072020 | 86 | 186 | 0.0 | 0.0 | 0.00 | 0.00 | 0.00 | 39 | 1007.0 |
| 20260905071521 | 85 | 190 | 4.0 | 4.0 | 0.00 | 0.00 | 0.00 | 41 | 1007.0 |
| 20260905071021 | 84 | 169 | 3.0 | 6.0 | 0.00 | 0.00 | 0.00 | 41 | 1007.0 |
| 20260905070520 | 84 | 180 | 4.0 | 4.0 | 0.00 | 0.00 | 0.00 | 41 | 1007.0 |
| 20260905070021 | 83 | 183 | 4.0 | 5.0 | 0.00 | 0.00 | 0.00 | 43 | 1007.0 |
| 20260905065520 | 84 | 145 | 4.0 | 4.0 | 0.00 | 0.00 | 0.00 | 42 | 1007.0 |
| 20260905065020 | 85 | 4 | 2.0 | 3.0 | 0.00 | 0.00 | 0.00 | 42 | 1007.0 |
| 20260905064520 | 83 | 116 | 1.0 | 2.0 | 0.00 | 0.00 | 0.00 | 44 | 1007.0 |
| 20260905064020 | 83 | 112 | 1.0 | 2.0 | 0.00 | 0.00 | 0.00 | 45 | 1007.0 |
| 20260905063520 | 81 | 85 | 2.0 | 3.0 | 0.00 | 0.00 | 0.00 | 47 | 1007.0 |
| 20260905063020 | 80 | 138 | 2.0 | 4.0 | 0.00 | 0.00 | 0.00 | 47 | 1007.0 |
| 20260905062520 | 80 | 106 | 1.0 | 3.0 | 0.00 | 0.00 | 0.00 | 48 | 1007.0 |
| 20260905062021 | 78 | 144 | 4.0 | 6.0 | 0.00 | 0.00 | 0.00 | 50 | 1007.0 |
| 20260905061520 | 78 | 176 | 3.0 | 7.0 | 0.00 | 0.00 | 0.00 | 50 | 1007.0 |
| 20260905061020 | 78 | 188 | 1.0 | 2.0 | 0.00 | 0.00 | 0.00 | 51 | 1007.0 |
| 20260905060520 | 78 | 125 | 2.0 | 2.0 | 0.00 | 0.00 | 0.00 | 51 | 1007.0 |
| 20260905060021 | 78 | 125 | 2.0 | 3.0 | 0.00 | 0.00 | 0.00 | 51 | 1007.0 |
| 20260905055520 | 79 | 158 | 0.0 | 1.0 | 0.00 | 0.00 | 0.00 | 49 | 1007.0 |
| 20260905055020 | 78 | 109 | 1.0 | 1.0 | 0.00 | 0.00 | 0.00 | 52 | 1007.0 |
| 20260905054520 | 77 | 163 | 1.0 | 2.0 | 0.00 | 0.00 | 0.00 | 52 | 1007.0 |
| 20260905054020 | 76 | 123 | 0.0 | 1.0 | 0.00 | 0.00 | 0.00 | 53 | 1007.0 |
| 20260905053520 | 76 | 93 | 1.0 | 1.0 | 0.00 | 0.00 | 0.00 | 55 | 1007.0 |
| 20260905053020 | 75 | 58 | 1.0 | 3.0 | 0.00 | 0.00 | 0.00 | 57 | 1007.0 |
| 20260905052520 | 74 | 94 | 1.0 | 1.0 | 0.00 | 0.00 | 0.00 | 58 | 1007.0 |
| 20260905052021 | 73 | 115 | 1.0 | 1.0 | 0.00 | 0.00 | 0.00 | 61 | 1007.0 |
| 20260905051520 | 73 | 113 | 1.0 | 1.0 | 0.00 | 0.00 | 0.00 | 61 | 1007.0 |
| 20260905051020 | 71 | 114 | 1.0 | 2.0 | 0.00 | 0.00 | 0.00 | 63 | 1007.0 |
| 20260905050521 | 70 | 108 | 2.0 | 2.0 | 0.00 | 0.00 | 0.00 | 66 | 1007.0 |
| 20260905050020 | 69 | 92 | 1.0 | 2.0 | 0.00 | 0.00 | 0.00 | 67 | 1007.0 |
| 20260905045520 | 69 | 149 | 1.0 | 2.0 | 0.00 | 0.00 | 0.00 | 69 | 1007.0 |
| 20260905045020 | 69 | 107 | 1.0 | 1.0 | 0.00 | 0.00 | 0.00 | 70 | 1007.0 |
| 20260905044520 | 68 | 112 | 0.0 | 1.0 | 0.00 | 0.00 | 0.00 | 73 | 1007.0 |